Westhampton Beach, NY

8:34 PM EDT on August 27, 2016 (GMT -0400)
The Gabreski

Weather History for KFOK - November, 2013

Change the Weather History Date:

Monday, November 25, 2013

  Actual Average Record
Temperature  
Mean Temperature 26 °F -  
Max Temperature 37 °F 49 °F 63 °F (2001)
Min Temperature 17 °F 30 °F 12 °F (2000)
Degree Days  
Heating Degree Days 38    
Moisture  
Dew Point 11 °F    
Average Humidity 52    
Maximum Humidity 69    
Minimum Humidity 31    
Precipitation  
Precipitation 0.00 in - - ()
Sea Level Pressure  
Sea Level Pressure 30.41 in    
Wind  
Wind Speed 7 mph (West)    
Max Wind Speed 14 mph    
Max Gust Speed 25 mph    
Visibility 10 miles    
Events      
Averages and records for this station are not official NWS values.
T = Trace of Precipitation, MM = Missing Value Source: NWS Daily Summary

Daily Weather History Graph

Daily Weather History Graph

Search for Another Location

Airport or City:

Trip Planner

Search our weather history database for the weather conditions in past years. The results will help you decide how hot, cold, wet, or windy it might be!

Date:

Astronomy

Nov. 25, 2013 Rise Set
Actual Time 6:49 AM EST 4:25 PM EST
Civil Twilight 6:19 AM EST 4:55 PM EST
Nautical Twilight 5:45 AM EST 5:29 PM EST
Astronomical Twilight 5:12 AM EST 6:02 PM EST
Moon 11:48 PM EST (11/25) 12:03 PM EST (11/25)
Length of Visible Light 10h 36m
Length of Day
9h 36m
Waning Gibbous, 51% of the Moon is Illuminated
Nov 25
Waning Gibbous
Nov 25
Last Quarter
Dec 2
New
Dec 9
First Quarter
Dec 17
Full

Hourly Weather History & Observations

Time (EST) Temp. Windchill Dew Point Humidity Pressure Visibility Wind Dir Wind Speed Gust Speed Precip Events Conditions
12:53 AM 24.1 °F 13.1 °F 5.0 °F 44% 30.34 in 10.0 mi WNW 11.5 mph - N/A   Partly Cloudy
1:53 AM 23.0 °F 14.7 °F 6.1 °F 48% 30.37 in 10.0 mi WNW 6.9 mph - N/A   Mostly Cloudy
2:53 AM 21.9 °F 12.5 °F 7.0 °F 53% 30.36 in 10.0 mi WNW 8.1 mph - N/A   Clear
3:53 AM 21.0 °F 12.4 °F 7.0 °F 55% 30.38 in 10.0 mi WNW 6.9 mph - N/A   Clear
4:53 AM 18.0 °F 11.1 °F 7.0 °F 62% 30.40 in 10.0 mi West 4.6 mph - N/A   Clear
5:53 AM 21.0 °F 12.4 °F 9.0 °F 60% 30.42 in 10.0 mi WNW 6.9 mph - N/A   Clear
6:53 AM 17.1 °F 11.7 °F 6.1 °F 62% 30.44 in 10.0 mi West 3.5 mph - N/A   Clear
7:53 AM 21.9 °F 17.2 °F 10.9 °F 63% 30.46 in 10.0 mi WSW 3.5 mph - N/A   Clear
8:53 AM 27.0 °F 16.7 °F 10.9 °F 51% 30.48 in 10.0 mi WNW 11.5 mph 18.4 mph N/A   Clear
9:53 AM 28.9 °F 18.6 °F 10.9 °F 47% 30.48 in 10.0 mi NW 12.7 mph 19.6 mph N/A   Clear
10:53 AM 30.9 °F 20.7 °F 10.9 °F 43% 30.46 in 10.0 mi NW 13.8 mph 19.6 mph N/A   Clear
11:53 AM 33.1 °F 25.5 °F 10.9 °F 40% 30.45 in 10.0 mi WNW 9.2 mph 25.3 mph N/A   Clear
12:53 PM 34.0 °F 29.8 °F 10.0 °F 37% 30.43 in 10.0 mi Variable 4.6 mph - N/A   Clear
1:53 PM 35.1 °F 32.2 °F 7.0 °F 31% 30.40 in 10.0 mi Variable 3.5 mph - N/A   Clear
2:53 PM 34.0 °F 26.6 °F 10.9 °F 38% 30.41 in 10.0 mi WSW 9.2 mph - N/A   Clear
3:53 PM 33.1 °F 27.7 °F 10.9 °F 40% 30.41 in 10.0 mi SW 5.8 mph - N/A   Clear
4:53 PM 28.9 °F 22.8 °F 10.9 °F 47% 30.42 in 10.0 mi WSW 5.8 mph - N/A   Clear
5:53 PM 28.9 °F - 14.0 °F 54% 30.41 in 10.0 mi Calm Calm - N/A   Clear
6:53 PM 27.0 °F - 15.1 °F 61% 30.40 in 10.0 mi Calm Calm - N/A   Clear
7:53 PM 26.1 °F - 15.1 °F 63% 30.40 in 10.0 mi Calm Calm - N/A   Clear
8:53 PM 23.0 °F - 12.9 °F 65% 30.38 in 10.0 mi Calm Calm - N/A   Clear
9:53 PM 26.1 °F - 17.1 °F 69% 30.37 in 10.0 mi Calm Calm - N/A   Clear
10:53 PM 36.0 °F 28.0 °F 21.9 °F 57% 30.35 in 10.0 mi WSW 11.5 mph - N/A   Clear
11:53 PM 37.0 °F 29.3 °F 21.0 °F 52% 30.36 in 10.0 mi West 11.5 mph 20.7 mph N/A   Clear